Amarant — CQSF — position and weather

sailwx.info

Track history (hours):
 
Tides and Currents Weather Stations Pressure Air Temp Water Temp Dewpoint Dewpoint Depression Visibility Wind Speed Wind Dir Waves Ship Positions

Amarant

Last reported at 2014-Oct-21 20:29 UTC. Time now 2014-Oct-22 03:06 UTC.
Position N 53°04' E 004°14'.

Length 120 m; draft 7.2 m.

Type: Tanker. MMSI: 255623000.

Date/timePositionNaut miles runAvg speedWind from/ knotsBaromVisibWave heightAir tempDewpointWater temp
2014-Oct-21 20:29N 53°04' E 004°14'8 8.0
2014-Oct-21 19:33N 53°09' E 004°23'9 9.3
2014-Oct-21 18:33N 53°18' E 004°28'44 8.3
2014-Oct-21 13:17N 53°59' E 004°50'7 8.6
2014-Oct-21 12:31N 54°06' E 004°53'12 8.2
2014-Oct-21 11:05N 54°16' E 005°02'8210.8
2014-Oct-21 03:32N 55°26' E 006°16'1211.9
2014-Oct-21 02:33N 55°36' E 006°27'177 9.3
2014-Oct-20 07:33N 57°43' E 010°08'9 9.2
2014-Oct-20 06:33N 57°47' E 010°24'9 9.1
2014-Oct-20 05:33N 57°48' E 010°41'9 9.3
2014-Oct-20 04:33N 57°45' E 010°57'1211.6
2014-Oct-20 03:33N 57°36' E 011°12'1312.6
2014-Oct-20 02:33N 57°26' E 011°27'1613.5
2014-Oct-20 01:23N 57°12' E 011°37'1113.4
2014-Oct-20 00:33N 57°01' E 011°44'1413.7
2014-Oct-19 23:33N 56°48' E 011°52'1313.3
2014-Oct-19 22:32N 56°35' E 011°58'1212.4
2014-Oct-19 21:33N 56°24' E 012°08'1312.8
2014-Oct-19 20:33N 56°14' E 012°23'1212.2
2014-Oct-19 19:33N 56°05' E 012°37'1211.6
2014-Oct-19 18:33N 55°54' E 012°45'1212.5
2014-Oct-19 17:33N 55°42' E 012°41'9 9.4
2014-Oct-19 16:33N 55°33' E 012°43'1211.9
2014-Oct-19 15:33N 55°21' E 012°40'1111.2
2014-Oct-19 14:33N 55°16' E 012°58'1312.1
2014-Oct-19 13:30N 55°15' E 013°20'1111.7
2014-Oct-19 12:33N 55°15' E 013°39'1212.3
2014-Oct-19 11:33N 55°14' E 014°01'1111.5
2014-Oct-19 10:33N 55°17' E 014°20'1513.0
2014-Oct-19 09:22N 55°28' E 014°39'1213.1
2014-Oct-19 08:28N 55°34' E 014°57'2312.0
2014-Oct-19 06:33N 55°46' E 015°32'1211.6
2014-Oct-19 05:30N 55°52' E 015°51'1111.2
2014-Oct-19 04:33N 55°57' E 016°08'1111.0
2014-Oct-19 03:33N 56°03' E 016°25'  
2014-Oct-15 05:32N 55°36' E 015°17'1212.8
2014-Oct-15 04:34N 55°30' E 014°57'1312.7
2014-Oct-15 03:34N 55°23' E 014°38'1312.6
2014-Oct-15 02:34N 55°14' E 014°24'4912.0
2014-Oct-14 22:31N 55°13' E 012°59'1212.2
2014-Oct-14 21:33N 55°18' E 012°39'1211.6
2014-Oct-14 20:34N 55°29' E 012°41'10 9.8
2014-Oct-14 19:33N 55°39' E 012°41'1212.0
2014-Oct-14 18:33N 55°51' E 012°41'1212.3
2014-Oct-14 17:33N 56°03' E 012°39'1212.2
2014-Oct-14 16:33N 56°11' E 012°22'1413.5
2014-Oct-14 15:33N 56°24' E 012°16'1413.5
2014-Oct-14 14:33N 56°37' E 012°10'1313.4
2014-Oct-14 13:33N 56°50' E 012°03'1413.5
2014-Oct-14 12:33N 57°03' E 011°57'1413.6
2014-Oct-14 11:30N 57°17' E 011°49'1313.5
2014-Oct-14 10:33N 57°29' E 011°41'1111.1
2014-Oct-14 09:33N 57°40' E 011°46'4 0.2
2014-Oct-13 08:33N 57°41' E 011°52'8 8.3
2014-Oct-13 07:33N 57°37' E 011°40'1313.2
2014-Oct-13 06:33N 57°40' E 011°15'1414.1
2014-Oct-13 05:33N 57°44' E 010°51'1413.7
2014-Oct-13 04:33N 57°44' E 010°25'18113.8
2014-Oct-12 15:30N 55°34' E 006°38'5914.1
2014-Oct-12 11:19N 54°43' E 005°45'1114.3
2014-Oct-12 10:33N 54°34' E 005°35'1414.4
2014-Oct-12 09:33N 54°21' E 005°23'1414.3
2014-Oct-12 08:32N 54°09' E 005°10'1413.9
2014-Oct-12 07:33N 53°56' E 005°05'1514.1
2014-Oct-12 06:31N 53°42' E 004°56'1515.2
2014-Oct-12 05:34N 53°29' E 004°45'1515.2
2014-Oct-12 04:32N 53°15' E 004°35'1514.5
2014-Oct-12 03:32N 53°02' E 004°23'1413.9
2014-Oct-12 02:33N 52°50' E 004°13'1413.7
2014-Oct-12 01:33N 52°40' E 003°58'4412.6
2014-Oct-11 22:06N 52°01' E 003°24'712.8
2014-Oct-11 21:32N 51°54' E 003°23'1312.4
2014-Oct-11 20:30N 51°42' E 003°16'  
Track history (hours):
 
Tides and Currents Weather Stations Pressure Air Temp Water Temp Dewpoint Dewpoint Depression Visibility Wind Speed Wind Dir Waves Ship Positions

Amarant

Last reported at 2014-Oct-21 20:29 UTC. Time now 2014-Oct-22 03:06 UTC.
Position N 53°04' E 004°14'.

Length 120 m; draft 7.2 m.

Type: Tanker. MMSI: 255623000.

Date/timePositionNaut miles runAvg speedWind from/ knotsBaromVisibWave heightAir tempDewpointWater temp
2014-Oct-21 20:29N 53°04' E 004°14'8 8.0
2014-Oct-21 19:33N 53°09' E 004°23'9 9.3
2014-Oct-21 18:33N 53°18' E 004°28'44 8.3
2014-Oct-21 13:17N 53°59' E 004°50'7 8.6
2014-Oct-21 12:31N 54°06' E 004°53'12 8.2
2014-Oct-21 11:05N 54°16' E 005°02'8210.8
2014-Oct-21 03:32N 55°26' E 006°16'1211.9
2014-Oct-21 02:33N 55°36' E 006°27'177 9.3
2014-Oct-20 07:33N 57°43' E 010°08'9 9.2
2014-Oct-20 06:33N 57°47' E 010°24'9 9.1
2014-Oct-20 05:33N 57°48' E 010°41'9 9.3
2014-Oct-20 04:33N 57°45' E 010°57'1211.6
2014-Oct-20 03:33N 57°36' E 011°12'1312.6
2014-Oct-20 02:33N 57°26' E 011°27'1613.5
2014-Oct-20 01:23N 57°12' E 011°37'1113.4
2014-Oct-20 00:33N 57°01' E 011°44'1413.7
2014-Oct-19 23:33N 56°48' E 011°52'1313.3
2014-Oct-19 22:32N 56°35' E 011°58'1212.4
2014-Oct-19 21:33N 56°24' E 012°08'1312.8
2014-Oct-19 20:33N 56°14' E 012°23'1212.2
2014-Oct-19 19:33N 56°05' E 012°37'1211.6
2014-Oct-19 18:33N 55°54' E 012°45'1212.5
2014-Oct-19 17:33N 55°42' E 012°41'9 9.4
2014-Oct-19 16:33N 55°33' E 012°43'1211.9
2014-Oct-19 15:33N 55°21' E 012°40'1111.2
2014-Oct-19 14:33N 55°16' E 012°58'1312.1
2014-Oct-19 13:30N 55°15' E 013°20'1111.7
2014-Oct-19 12:33N 55°15' E 013°39'1212.3
2014-Oct-19 11:33N 55°14' E 014°01'1111.5
2014-Oct-19 10:33N 55°17' E 014°20'1513.0
2014-Oct-19 09:22N 55°28' E 014°39'1213.1
2014-Oct-19 08:28N 55°34' E 014°57'2312.0
2014-Oct-19 06:33N 55°46' E 015°32'1211.6
2014-Oct-19 05:30N 55°52' E 015°51'1111.2
2014-Oct-19 04:33N 55°57' E 016°08'1111.0
2014-Oct-19 03:33N 56°03' E 016°25'  
2014-Oct-15 05:32N 55°36' E 015°17'1212.8
2014-Oct-15 04:34N 55°30' E 014°57'1312.7
2014-Oct-15 03:34N 55°23' E 014°38'1312.6
2014-Oct-15 02:34N 55°14' E 014°24'4912.0
2014-Oct-14 22:31N 55°13' E 012°59'1212.2
2014-Oct-14 21:33N 55°18' E 012°39'1211.6
2014-Oct-14 20:34N 55°29' E 012°41'10 9.8
2014-Oct-14 19:33N 55°39' E 012°41'1212.0
2014-Oct-14 18:33N 55°51' E 012°41'1212.3
2014-Oct-14 17:33N 56°03' E 012°39'1212.2
2014-Oct-14 16:33N 56°11' E 012°22'1413.5
2014-Oct-14 15:33N 56°24' E 012°16'1413.5
2014-Oct-14 14:33N 56°37' E 012°10'1313.4
2014-Oct-14 13:33N 56°50' E 012°03'1413.5
2014-Oct-14 12:33N 57°03' E 011°57'1413.6
2014-Oct-14 11:30N 57°17' E 011°49'1313.5
2014-Oct-14 10:33N 57°29' E 011°41'1111.1
2014-Oct-14 09:33N 57°40' E 011°46'4 0.2
2014-Oct-13 08:33N 57°41' E 011°52'8 8.3
2014-Oct-13 07:33N 57°37' E 011°40'1313.2
2014-Oct-13 06:33N 57°40' E 011°15'1414.1
2014-Oct-13 05:33N 57°44' E 010°51'1413.7
2014-Oct-13 04:33N 57°44' E 010°25'18113.8
2014-Oct-12 15:30N 55°34' E 006°38'5914.1
2014-Oct-12 11:19N 54°43' E 005°45'1114.3
2014-Oct-12 10:33N 54°34' E 005°35'1414.4
2014-Oct-12 09:33N 54°21' E 005°23'1414.3
2014-Oct-12 08:32N 54°09' E 005°10'1413.9
2014-Oct-12 07:33N 53°56' E 005°05'1514.1
2014-Oct-12 06:31N 53°42' E 004°56'1515.2
2014-Oct-12 05:34N 53°29' E 004°45'1515.2
2014-Oct-12 04:32N 53°15' E 004°35'1514.5
2014-Oct-12 03:32N 53°02' E 004°23'1413.9
2014-Oct-12 02:33N 52°50' E 004°13'1413.7
2014-Oct-12 01:33N 52°40' E 003°58'4412.6
2014-Oct-11 22:06N 52°01' E 003°24'712.8
2014-Oct-11 21:32N 51°54' E 003°23'1312.4
2014-Oct-11 20:30N 51°42' E 003°16'  

Dump ship's entire track history